This is the latest recevied weather packets stored in our database for station/object PA3CPS. If no packets are shown the sender has not sent any weather packets the latest 10 day(s).
| Time | Temp. | Humidity | Pressure | Rain* | Wind** | Luminosity | Snow |
|---|---|---|---|---|---|---|---|
| 1777464223 | 18.89° C | 34% | 1026.8 hPa | 0 mm | - | 861 W/m² | - |
| 1777463919 | 18.33° C | 34% | 1027 hPa | 0 mm | - | 870 W/m² | - |
| 1777463617 | 17.78° C | 32% | 1026.9 hPa | 0 mm | - | 872 W/m² | - |
| 1777463316 | 18.33° C | 32% | 1026.9 hPa | 0 mm | - | 870 W/m² | - |
| 1777463015 | 18.33° C | 32% | 1026.9 hPa | 0 mm | - | 872 W/m² | - |
| 1777462717 | 18.33° C | 36% | 1026.9 hPa | 0 mm | - | 872 W/m² | - |
| 1777462414 | 17.78° C | 35% | 1026.8 hPa | 0 mm | - | 870 W/m² | - |
| 1777462114 | 17.78° C | 33% | 1027 hPa | 0 mm | - | 872 W/m² | - |
| 1777461813 | 17.78° C | 36% | 1027 hPa | 0 mm | - | 865 W/m² | - |
| 1777461513 | 17.22° C | 38% | 1027.1 hPa | 0 mm | - | 865 W/m² | - |
| 1777461212 | 17.78° C | 37% | 1027.1 hPa | 0 mm | - | 863 W/m² | - |
| 1777460914 | 17.78° C | 40% | 1027.1 hPa | 0 mm | - | 865 W/m² | - |
| 1777460612 | 17.22° C | 37% | 1027.2 hPa | 0 mm | - | 853 W/m² | - |
| 1777460313 | 17.22° C | 38% | 1027.2 hPa | 0 mm | - | 856 W/m² | - |
| 1777460013 | 17.22° C | 39% | 1027.1 hPa | 0 mm | - | 856 W/m² | - |
| 1777459712 | 17.22° C | 39% | 1027.2 hPa | 0 mm | - | 853 W/m² | - |
| 1777459413 | 17.22° C | 39% | 1027.2 hPa | 0 mm | - | 847 W/m² | - |
| 1777459113 | 16.67° C | 41% | 1027.2 hPa | 0 mm | - | 844 W/m² | - |
| 1777458813 | 17.22° C | 37% | 1027.2 hPa | 0 mm | - | 838 W/m² | - |
| 1777458513 | 16.67° C | 39% | 1027.2 hPa | 0 mm | - | 833 W/m² | - |
| 1777458213 | 17.22° C | 38% | 1027.3 hPa | 0 mm | - | 833 W/m² | - |
| 1777457912 | 16.67° C | 40% | 1027.3 hPa | 0 mm | - | 821 W/m² | - |
| 1777457613 | 17.22° C | 38% | 1027.3 hPa | 0 mm | - | 821 W/m² | - |
| 1777457311 | 16.67° C | 38% | 1027.2 hPa | 0 mm | - | 814 W/m² | - |
| 1777457010 | 16.67° C | 40% | 1027.1 hPa | 0 mm | - | 812 W/m² | - |
* Rain latest hour (hover to see other rain measurements)
** Current wind speed in m/s (hover to see current wind gust speed)